Station ADKA2 - 9461380 - Adak Island, AK Image indicating link to RSS feed of recent meteorological observations for station ADKA2


Conditions at ADKA2 as of
(4:00 pm HAST on 07/22/2024)
0200 GMT on 07/23/2024:
     

Click on the graph icon in the table below to see a time series plot of the last five days of that observation.

5-day plot - Wind Direction Wind Direction (WDIR): S ( 170 deg true )
5-day plot - Wind Speed Wind Speed (WSPD): 11.1 kts
5-day plot - Wind Gust Wind Gust (GST): 15.0 kts
5-day plot - Atmospheric Pressure Atmospheric Pressure (PRES):29.76 in
5-day plot - Pressure Tendency Pressure Tendency (PTDY):+0.00 in ( Steady )
5-day plot - Air Temperature Air Temperature (ATMP): 50.7 °F
5-day plot - Water Temperature Water Temperature (WTMP): 42.6 °F
5-day plot - Wind Chill Wind Chill (CHILL): 46.0 °F
5-day plot - Wind Speed at 10 Meters Wind Speed at 10 meters (WSPD10M): 11.7 kts
5-day plot - Wind Speed at 20 Meters Wind Speed at 20 meters (WSPD20M): 11.7 kts
5-day plot -  Wind Speed, Wind Gust and Atmospheric Pressure Combined plot of Wind Speed, Gust, and Air Pressure
NOS Water Level Observation Network Water Level
Previous observations
TIME
(HAST)
5-day plot - Wind Direction
WDIR
 
5-day plot - Wind Speed
WSPD
kts
5-day plot - Wind Gust
GST
kts
5-day plot - Wave Height
WVHT
ft
5-day plot - Dominant Wave Period
DPD
sec
5-day plot - Average Wave Period
APD
sec
5-day plot - Mean Wave Direction
MWD
 
5-day plot - Atmospheric Pressure
PRES
in
5-day plot - Pressure Tendency
PTDY
in
5-day plot - Air Temperature
ATMP
°F
5-day plot - Water Temperature
WTMP
°F
5-day plot - Dew Point
DEWP
°F
5-day plot - Salinity
SAL
psu
5-day plot - Visibility
VIS
nmi
5-day plot - Tide (above MLLW)
TIDE
ft
2024-07-22 03:54 pmSSE 12.0 14.0----29.76- 50.9 42.8----
2024-07-22 03:48 pm S 12.0 15.9----29.76- 50.9 43.5----
2024-07-22 03:42 pm S 12.0 15.0----29.76- 50.7 43.9----
2024-07-22 03:36 pm S 11.1 13.0----29.76- 50.7 44.4----
2024-07-22 03:30 pm S 7.0 12.0----29.76- 50.5 44.4----
2024-07-22 03:24 pmSSE 8.0 11.1----29.76- 50.4 44.6----
2024-07-22 03:18 pm S 8.0 11.1----29.76- 50.4 44.1----
2024-07-22 03:12 pm S 8.0 12.0----29.76- 50.5 44.4----
2024-07-22 03:06 pm S 9.9 12.0----29.76- 50.4 45.0----
2024-07-22 03:00 pm S 8.9 13.0----29.76+0.01 50.4 45.0----
2024-07-22 02:54 pm S 7.0 11.1----29.76- 50.5 45.1----
2024-07-22 02:48 pm S 7.0 11.1----29.77- 50.4 45.5----
2024-07-22 02:42 pm S 9.9 13.0----29.77- 50.7 45.5----
2024-07-22 02:36 pm S 8.0 14.0----29.77- 51.1 45.7----
2024-07-22 02:30 pm S 8.9 14.0----29.77- 51.1 45.7----
2024-07-22 02:24 pm S 9.9 14.0----29.77- 51.1 45.7----
2024-07-22 02:18 pm S 13.0 15.0----29.77- 51.1 45.5----
2024-07-22 02:12 pm S 9.9 17.1----29.77- 51.1 46.4----
2024-07-22 02:06 pm S 15.9 17.1----29.77- 51.1 46.8----
2024-07-22 02:00 pm S 12.0 17.1----29.76+0.00 51.3 46.8----
2024-07-22 01:54 pm S 15.0 18.1----29.76- 51.4 46.9----
2024-07-22 01:48 pm S 13.0 15.9----29.76-- 46.0----
2024-07-22 01:42 pm S 13.0 15.9----29.76-- 46.0----
2024-07-22 01:36 pm S 14.0 19.0----29.76-- 46.0----
2024-07-22 01:30 pm S 15.9 19.0----29.76-- 46.2----
2024-07-22 01:24 pm S 13.0 15.0----29.76-- 46.6----
2024-07-22 01:18 pm S 13.0 15.9----29.76- 50.4 45.7----
2024-07-22 01:12 pm S 11.1 15.0----29.76- 50.4 45.5----
2024-07-22 01:06 pm S 8.9 13.0----29.76- 50.5 45.5----
2024-07-22 01:00 pm S 9.9 15.0----29.76+0.00 50.7 45.5----
2024-07-22 12:54 pm S 11.1 13.0----29.76- 50.9 45.5----
2024-07-22 12:48 pm S 11.1 13.0----29.76- 50.9 45.3----
2024-07-22 12:42 pm S 11.1 14.0----29.76- 51.1 45.5----
2024-07-22 12:36 pm S 13.0 15.0----29.76- 51.4 45.5----
2024-07-22 12:30 pm S 13.0 15.9----29.76- 51.6 45.7----
2024-07-22 12:24 pm S 12.0 15.9----29.76- 52.0 45.7----
2024-07-22 12:18 pm S 12.0 14.0----29.75- 52.2 45.7----
2024-07-22 12:12 pm S 11.1 14.0----29.75- 52.5 45.9----
2024-07-22 12:06 pmSSW 11.1 15.0----29.75- 52.0 45.9----
2024-07-22 12:00 pm S 8.9 13.0----29.75+0.00 52.3 46.0----
2024-07-22 11:54 am S 12.0 14.0----29.75- 51.8 46.0----
2024-07-22 11:48 am S 9.9 12.0----29.75- 51.6 45.9----
2024-07-22 11:42 am S 9.9 12.0----29.75- 51.4 45.9----
2024-07-22 11:36 am S 9.9 12.0----29.75- 50.9 46.0----
2024-07-22 11:30 am-------29.75-- 46.0----
2024-07-22 11:24 am-------29.76-- 45.7----
2024-07-22 11:18 amSSE 12.0 13.0----29.76- 49.8 45.7----
2024-07-22 11:12 am S 12.0 14.0----29.75- 49.6 45.5----
2024-07-22 11:06 am S 12.0 15.0----29.76- 49.6 45.5----
2024-07-22 11:00 am S 13.0 14.0----29.76+0.01- 45.5----
2024-07-22 10:54 am S 9.9 13.0----29.75-- 45.5----
2024-07-22 10:48 am S 9.9 13.0----29.75- 50.2 45.5----
2024-07-22 10:42 amSSE 9.9 13.0----29.75- 50.0 45.5----
2024-07-22 10:36 am S 9.9 12.0----29.75- 49.8 45.5----
2024-07-22 10:30 amSSE 9.9 12.0----29.75- 49.8 45.7----
2024-07-22 10:24 amSSE 9.9 12.0----29.75- 49.6 45.5----
2024-07-22 10:18 am S 8.9 11.1----29.75- 49.6 45.7----
2024-07-22 10:12 amSSE 9.9 13.0----29.75- 49.3 45.7----
2024-07-22 10:06 am S 12.0 13.0----29.75- 48.9 45.5----
2024-07-22 10:00 am S 12.0 14.0----29.75+0.01 49.1 45.5----
2024-07-22 09:54 am S 12.0 13.0----29.75- 48.9 45.1----
2024-07-22 09:48 amSSE 11.1 13.0----29.76-- 44.6----
2024-07-22 09:42 am S 11.1 12.0----29.75-- 44.1----
2024-07-22 09:36 am S 11.1 13.0----29.76-- 43.7----
2024-07-22 09:30 am S 12.0 14.0----29.76- 48.9 43.5----
2024-07-22 09:24 am S 12.0 14.0----29.76- 48.9 43.7----
2024-07-22 09:18 am S 13.0 14.0----29.75- 49.1 43.5----
2024-07-22 09:12 am S 9.9 12.0----29.75- 49.3 43.5----
2024-07-22 09:06 am S 8.9 11.1----29.75- 49.1 43.7----
2024-07-22 09:00 am S 9.9 12.0----29.75+0.01 48.7 43.3----
2024-07-22 08:54 am S 9.9 12.0----29.75- 48.6 43.5----
2024-07-22 08:48 am S 11.1 13.0----29.75- 48.6 43.3----
2024-07-22 08:42 amSSE 11.1 13.0----29.75- 48.6 43.2----
2024-07-22 08:36 amSSE 11.1 13.0----29.75- 48.6 43.0----
2024-07-22 08:30 am S 12.0 13.0----29.75- 48.6 43.0----
2024-07-22 08:24 am S 12.0 13.0----29.75- 48.7 42.8----
2024-07-22 08:18 am S 12.0 13.0----29.75- 48.6 42.8----
2024-07-22 08:12 am S 11.1 13.0----29.75- 48.4 43.0----
2024-07-22 08:06 amSSE 11.1 12.0----29.75- 48.6 43.0----
2024-07-22 08:00 amSSE 11.1 13.0----29.75+0.01 48.6 43.0----
2024-07-22 07:54 am S 12.0 14.0----29.74- 48.6 43.0----
2024-07-22 07:48 amSSE 12.0 14.0----29.74- 48.6 43.0----
2024-07-22 07:42 am S 12.0 14.0----29.74- 48.4 43.0----
2024-07-22 07:36 am S 12.0 14.0----29.75- 48.4 43.0----
2024-07-22 07:30 amSSE 9.9 12.0----29.75- 48.2 42.8----
2024-07-22 07:24 am S 12.0 13.0----29.75- 48.2 42.8----
2024-07-22 07:18 amSSE 9.9 12.0----29.74- 48.0 43.0----
2024-07-22 07:12 amSSE 8.9 12.0----29.74- 48.2 42.8----
2024-07-22 07:06 amSSE 9.9 13.0----29.75- 48.2 42.8----
2024-07-22 07:00 amSSE 9.9 12.0----29.75+0.00 48.2 42.8----
2024-07-22 06:54 amSSE 9.9 12.0----29.75- 48.2 43.0----
2024-07-22 06:48 amSSE 11.1 13.0----29.74- 48.4 43.0----
2024-07-22 06:42 amSSE 11.1 13.0----29.75- 48.6 43.0----
2024-07-22 06:36 amSSE 11.1 13.0----29.75- 48.2 43.0----
2024-07-22 06:30 amSSE 11.1 12.0----29.74- 48.4 43.2----
2024-07-22 06:24 am S 11.1 13.0----29.74- 48.2 43.2----
2024-07-22 06:18 am S 11.1 14.0----29.74- 48.2 43.2----
2024-07-22 06:12 amSSE 12.0 14.0----29.74- 48.2 43.2----
2024-07-22 06:06 amSSE 12.0 15.0----29.74- 48.2 42.8----
2024-07-22 06:00 amSSE 12.0 14.0----29.74-0.01 48.2 42.8----
2024-07-22 05:54 am S 12.0 14.0----29.74- 48.4 42.8----
2024-07-22 05:48 am S 11.1 14.0----29.74- 48.4 43.0----
2024-07-22 05:42 am S 12.0 14.0----29.74- 48.4 42.8----
2024-07-22 05:36 amSSE 13.0 14.0----29.73- 48.4 42.8----
2024-07-22 05:30 am S 11.1 14.0----29.73- 48.6 42.8----
2024-07-22 05:24 am S 11.1 12.0----29.73- 48.4 42.8----
2024-07-22 05:18 amSSE 9.9 12.0----29.73- 48.4 42.8----
2024-07-22 05:12 amSSE 12.0 14.0----29.74- 48.4 42.8----
2024-07-22 05:06 amSSE 12.0 14.0----29.74- 48.6 42.6----
2024-07-22 05:00 am S 12.0 14.0----29.74-0.03 48.6 42.6----
2024-07-22 04:54 am S 11.1 14.0----29.73- 48.6 42.4----
2024-07-22 04:48 amSSE 12.0 13.0----29.73- 48.6 42.4----
2024-07-22 04:42 am S 12.0 13.0----29.74- 48.7 42.3----
2024-07-22 04:36 am S 12.0 12.0----29.74- 48.7 42.4----
2024-07-22 04:30 am S 9.9 12.0----29.74- 48.7 42.4----
2024-07-22 04:24 am S 9.9 12.0----29.74- 48.7 42.4----
2024-07-22 04:18 am S 11.1 12.0----29.74- 48.7 42.4----
2024-07-22 04:12 am S 11.1 13.0----29.74- 48.7 42.6----
2024-07-22 04:06 am S 8.9 11.1----29.74- 48.7 42.6----
2024-07-22 04:00 am S 9.9 12.0----29.74-0.03 48.7 42.6----
2024-07-22 03:54 am S 8.0 12.0----29.74- 48.7 42.4----
2024-07-22 03:48 am S 8.9 12.0----29.74- 48.7 42.4----
2024-07-22 03:42 am S 8.9 11.1----29.74- 48.6 42.4----
2024-07-22 03:36 am S 8.9 11.1----29.74- 48.6 42.4----
2024-07-22 03:30 am S 9.9 12.0----29.75- 48.7 42.4----
2024-07-22 03:24 am S 8.9 13.0----29.75- 48.7 42.4----
2024-07-22 03:18 am S 9.9 13.0----29.75- 48.7 42.4----
2024-07-22 03:12 am S 11.1 12.0----29.75- 48.7 42.4----
2024-07-22 03:06 am S 11.1 14.0----29.75- 48.7 42.4----
2024-07-22 03:00 am S 11.1 13.0----29.75-0.02 48.6 42.4----
2024-07-22 02:54 am S 11.1 13.0----29.75- 48.6 42.4----
2024-07-22 02:48 am S 9.9 13.0----29.75- 48.6 42.4----
2024-07-22 02:42 am S 11.1 12.0----29.75- 48.6 42.4----
2024-07-22 02:36 am S 9.9 13.0----29.76- 48.6 42.4----
2024-07-22 02:30 am S 8.9 12.0----29.76- 48.6 42.4----
2024-07-22 02:24 am S 8.9 12.0----29.75- 48.6 42.4----
2024-07-22 02:18 am S 8.9 13.0----29.76- 48.6 42.4----
2024-07-22 02:12 am S 9.9 12.0----29.76- 48.6 42.4----
2024-07-22 02:06 am S 11.1 12.0----29.76- 48.6 42.6----
2024-07-22 02:00 am S 9.9 12.0----29.76+0.00 48.6 42.4----
2024-07-22 01:54 am S 8.9 11.1----29.76- 48.6 42.6----
2024-07-22 01:48 am S 8.9 11.1----29.76- 48.4 42.4----
2024-07-22 01:42 am S 8.9 11.1----29.76- 48.4 42.4----
2024-07-22 01:36 am S 9.9 13.0----29.77- 48.4 42.4----
2024-07-22 01:30 am S 9.9 12.0----29.77- 48.2 42.4----
2024-07-22 01:24 am S 9.9 12.0----29.77- 48.0 42.4----
2024-07-22 01:18 am S 9.9 12.0----29.77- 48.0 42.4----
2024-07-22 01:12 am S 9.9 12.0----29.77- 47.8 42.4----
2024-07-22 01:06 am S 9.9 12.0----29.77- 47.8 42.4----
2024-07-22 01:00 am S 11.1 13.0----29.77+0.00 48.0 42.4----
2024-07-22 12:54 am S 8.9 12.0----29.77- 48.0 42.4----
2024-07-22 12:48 am S 9.9 13.0----29.78- 48.2 42.4----
2024-07-22 12:42 am S 11.1 13.0----29.78- 48.2 42.4----
2024-07-22 12:36 am S 7.0 11.1----29.78- 48.2 42.4----
2024-07-22 12:30 am S 8.0 9.9----29.78- 48.4 42.4----
2024-07-22 12:24 am S 8.9 9.9----29.78- 48.4 42.4----
2024-07-22 12:18 am S 8.0 8.9----29.77- 48.6 42.4----
2024-07-22 12:12 am S 8.0 8.9----29.77- 48.6 42.4----
2024-07-22 12:06 am S 6.0 8.9----29.77- 48.6 42.6----
2024-07-22 12:00 am S 5.1 6.0----29.77+0.01 48.6 42.6----
2024-07-21 11:54 pm S 5.1 7.0----29.77- 48.6 42.4----
2024-07-21 11:48 pm SE 6.0 8.9----29.77- 48.6 42.4----
2024-07-21 11:42 pmSSE 8.9 9.9----29.77- 48.7 42.6----
2024-07-21 11:36 pmSSE 6.0 8.9----29.77- 48.7 42.6----
2024-07-21 11:30 pm SE 6.0 8.0----29.78- 48.7 42.6----
2024-07-21 11:24 pmSSE 7.0 8.9----29.78- 48.7 42.6----
2024-07-21 11:18 pm SE 8.0 9.9----29.77- 48.9 42.6----
2024-07-21 11:12 pmSSE 8.9 11.1----29.77- 49.1 42.4----
2024-07-21 11:06 pmSSE 8.9 11.1----29.77- 49.1 42.4----
2024-07-21 11:00 pmSSE 9.9 12.0----29.77+0.01 48.9 42.3----
2024-07-21 10:54 pmSSE 8.9 12.0----29.77- 49.1 42.3----
2024-07-21 10:48 pmSSE 9.9 14.0----29.77- 49.1 42.3----
2024-07-21 10:42 pmSSE 11.1 14.0----29.77- 48.9 42.3----
2024-07-21 10:36 pmSSE 11.1 12.0----29.77- 49.1 42.3----
2024-07-21 10:30 pmSSE 9.9 12.0----29.77- 48.9 42.3----
2024-07-21 10:24 pmSSE 11.1 12.0----29.77- 49.1 42.3----
2024-07-21 10:18 pmSSE 9.9 13.0----29.76- 49.3 42.3----
2024-07-21 10:12 pmSSE 11.1 14.0----29.76- 49.3 42.3----
2024-07-21 10:06 pmSSE 14.0 15.0----29.77- 49.3 42.3----
2024-07-21 10:00 pmSSE 11.1 15.0----29.77+0.00 49.3 42.3----
2024-07-21 09:54 pmSSE 11.1 15.0----29.76- 49.5 42.3----
2024-07-21 09:48 pmSSE 8.9 14.0----29.76- 49.6 42.3----
2024-07-21 09:42 pmSSE 12.0 15.0----29.76- 49.6 42.3----
2024-07-21 09:36 pmSSE 9.9 13.0----29.76- 50.0 42.3----
2024-07-21 09:30 pmSSE 12.0 13.0----29.76- 49.3 42.3----
2024-07-21 09:24 pm SE 12.0 14.0----29.76- 49.5 42.3----
2024-07-21 09:18 pm SE 11.1 14.0----29.76- 49.6 42.3----
2024-07-21 09:12 pm SE 11.1 13.0----29.76- 49.6 42.3----
2024-07-21 09:06 pm SE 8.0 12.0----29.76- 49.6 42.4----
2024-07-21 09:00 pm SE 7.0 9.9----29.76+0.00 49.6 42.4----
2024-07-21 08:54 pmSSE 8.9 9.9----29.76- 49.6 42.4----
2024-07-21 08:48 pmSSE 8.9 11.1----29.76- 49.5 42.4----
2024-07-21 08:42 pmSSE 8.9 9.9----29.76- 49.5 42.4----
2024-07-21 08:36 pm SE 8.9 9.9----29.75- 49.5 42.4----
2024-07-21 08:30 pmSSE 9.9 11.1----29.75- 49.6 42.4----
2024-07-21 08:24 pmSSE 8.9 9.9----29.75- 49.6 42.4----
2024-07-21 08:18 pmSSE 8.9 11.1----29.76- 49.6 42.4----
2024-07-21 08:12 pmSSE 9.9 12.0----29.76- 49.5 42.4----
2024-07-21 08:06 pmSSE 11.1 12.0----29.76- 49.5 42.6----
2024-07-21 08:00 pmSSE 8.9 13.0----29.76+0.00 49.3 42.4----
2024-07-21 07:54 pmSSE 9.9 12.0----29.76- 49.1 42.6----
2024-07-21 07:48 pmSSE 9.9 12.0----29.76- 49.1 42.6----
2024-07-21 07:42 pmSSE 9.9 12.0----29.76- 49.1 42.6----
2024-07-21 07:36 pmSSE 9.9 13.0----29.76- 49.3 42.6----
2024-07-21 07:30 pmSSE 9.9 12.0----29.76- 49.5 42.6----
2024-07-21 07:24 pmSSE 8.9 11.1----29.76- 49.6 42.8----
2024-07-21 07:18 pmSSE 9.9 11.1----29.76- 49.6 42.8----
2024-07-21 07:12 pmSSE 8.9 12.0----29.76- 49.6 42.8----
2024-07-21 07:06 pmSSE 9.9 12.0----29.76- 49.8 42.8----
2024-07-21 07:00 pm S 8.9 11.1----29.76+0.01 50.2 43.0----
2024-07-21 06:54 pm S 6.0 9.9----29.76- 50.5 43.2----
2024-07-21 06:48 pm S 8.9 12.0----29.76- 50.5 43.2----
2024-07-21 06:42 pm S 8.9 14.0----29.75- 50.4 42.8----
2024-07-21 06:36 pm S 11.1 13.0----29.76- 49.8 42.8----
2024-07-21 06:30 pm--------- 50.2 42.8----
2024-07-21 06:24 pm--------- 50.0 43.0----
2024-07-21 06:18 pm S 12.0 14.0----29.75- 49.8 43.0----
2024-07-21 06:12 pm S 12.0 14.0----29.75- 49.6 43.2----
2024-07-21 06:06 pm S 13.0 15.0----29.75- 49.6 43.5----
2024-07-21 06:00 pm S 13.0 14.0----29.75+0.00 50.0 43.9----
2024-07-21 05:54 pmSSE 11.1 12.0----29.75- 50.4 43.5----
2024-07-21 05:48 pmSSE 11.1 12.0----29.75-- 43.0----
2024-07-21 05:42 pmSSE 11.1 13.0----29.75-- 42.6----
2024-07-21 05:36 pm S 12.0 14.0----29.75-- 42.8----
2024-07-21 05:30 pm S 12.0 15.0----29.75- 49.8 43.2----
2024-07-21 05:24 pm S 14.0 15.9----29.75- 49.5 44.8----
2024-07-21 05:18 pm S 13.0 15.9----29.75- 49.6 43.5----
2024-07-21 05:12 pm S 14.0 18.1----29.75- 49.8 43.5----
2024-07-21 05:06 pm S 15.9 18.1----29.75- 50.0 43.5----
2024-07-21 05:00 pm S 14.0 15.9----29.75+0.00 50.4 43.5----
2024-07-21 04:54 pmSSE 13.0 15.0----29.75- 50.4 43.7----
2024-07-21 04:48 pmSSE 12.0 15.0----29.75- 50.2 43.9----
2024-07-21 04:42 pmSSE 12.0 14.0----29.75- 50.2 43.9----
2024-07-21 04:36 pmSSE 13.0 14.0----29.75- 50.2 43.9----
2024-07-21 04:30 pm S 12.0 14.0------ 50.2 43.9----
2024-07-21 04:24 pm S 13.0 14.0------ 50.2 43.9----
2024-07-21 04:18 pm S 12.0 15.0----29.75- 50.4 43.9----
2024-07-21 04:12 pm S 12.0 14.0----29.75- 50.4 43.9----
2024-07-21 04:06 pm S 13.0 14.0----29.75- 50.4 43.9----
2024-07-21 04:00 pm S 13.0 15.0----29.75+0.01 50.4 44.2----
2024-07-21 03:54 pm S 13.0 14.0----29.75- 50.4 44.4----